Overview Statistics Trail Chart Weather Telemetry Raw packets
 

This is the latest recevied weather packets stored in our database for station/object WX5II-15. If no packets are shown the sender has not sent any weather packets the latest 10 day(s).

<< 1 2 3 4 5 >>
Time Temp. Humidity Pressure Rain* Wind** Luminosity Snow
1788562543 38.89° C 39% 1002 hPa 0 mm - - -
1788561943 39.44° C 38% 1002 hPa 0 mm - - -
1788561342 40° C 39% 1002 hPa 0 mm - - -
1788560742 38.89° C 41% 1002 hPa 0 mm - - -
1788560141 37.22° C 42% 1002 hPa 0 mm - - -
1788559541 37.78° C 41% 1002 hPa 0 mm - - -
1788558940 40.56° C 36% 1002.3 hPa 0 mm - - -
1788558339 41.11° C 34% 1002 hPa 0 mm - - -
1788557739 41.11° C 35% 1002 hPa 0 mm - - -
1788557138 41.67° C 33% 1002.3 hPa 0 mm - - -
1788556538 41.67° C 33% 1002.3 hPa 0 mm - - -
1788555937 41.11° C 32% 1002.3 hPa 0 mm - - -
1788555337 40.56° C 32% 1002.3 hPa 0 mm - - -
1788554736 39.44° C 33% 1002.3 hPa 0 mm - - -
1788554135 40° C 35% 1002.7 hPa 0 mm - - -
1788552934 39.44° C 36% 1002.7 hPa 0 mm - - -
1788552334 38.89° C 37% 1003 hPa 0 mm - - -
1788551733 38.33° C 38% 1003 hPa 0 mm - - -
1788551133 37.78° C 40% 1003 hPa 0 mm - - -
1788550533 37.78° C 40% 1003 hPa 0 mm - - -
1788549932 37.78° C 41% 1003.3 hPa 0 mm - - -
1788549331 37.78° C 41% 1003.3 hPa 0 mm - - -
1788548786 38.33° C 40% 1003.3 hPa 0 mm - - -
1788548730 38.33° C 40% 1003.3 hPa 0 mm - - -
1788548202 37.78° C 40% 1003.7 hPa 0 mm - - -

* Rain latest hour (hover to see other rain measurements)
** Current wind speed in m/s (hover to see current wind gust speed)